KK7GO-7 Weather Reports


time (UTC)temp
C
wind
direction
speed
KPH
gust
KPH
rain 1hr
cm
rain 24hr
cm
rain mn
cm
humidity
%
barometer
mb
20260904101328 11 360 0.0 1.6 0.00 0.00 0.00 73 1010.4
20260904100825 11 360 0.0 1.6 0.00 0.00 0.00 72 1010.4
20260904100337 11 360 0.0 1.6 0.00 0.00 0.00 73 1010.3
20260904095838 11 360 0.0 3.2 0.00 0.00 0.00 73 1010.3
20260904095331 11 360 0.0 3.2 0.00 0.00 0.00 73 1010.1
20260904094856 11 360 0.0 1.6 0.00 0.00 0.00 73 1010.1
20260904094329 11 360 0.0 1.6 0.00 0.00 0.00 72 1010.0
20260904093827 11 360 0.0 4.8 0.00 0.00 0.00 73 1010.1
20260904093344 11 360 1.6 4.8 0.00 0.00 0.00 72 1010.1
20260904092839 11 360 0.0 3.2 0.00 0.00 0.00 72 1010.0
20260904092333 11 360 0.0 3.2 0.00 0.00 0.00 73 1010.0
20260904091826 11 360 0.0 3.2 0.00 0.00 0.00 73 1010.0
20260904091343 11 360 0.0 3.2 0.00 0.00 0.00 73 1010.0
20260904090839 11 360 1.6 3.2 0.00 0.00 0.00 73 1009.9
20260904090344 11 360 0.0 4.8 0.00 0.00 0.00 74 1009.9
20260904085836 11 360 1.6 4.8 0.00 0.00 0.00 74 1009.9
20260904085330 11 360 3.2 4.8 0.00 0.00 0.00 72 1009.8
20260904084846 11 41 3.2 4.8 0.00 0.00 0.00 72 1009.8
20260904084341 11 24 1.6 4.8 0.00 0.00 0.00 72 1009.9
20260904083840 11 22 3.2 4.8 0.00 0.00 0.00 72 1010.0
20260904083351 11 360 1.6 3.2 0.00 0.00 0.00 72 1010.0
20260904082823 11 360 0.0 4.8 0.00 0.00 0.00 72 1010.0
20260904082339 11 360 0.0 4.8 0.00 0.00 0.00 72 1010.0
20260904081842 11 360 1.6 4.8 0.00 0.00 0.00 72 1010.0
20260904081339 11 360 0.0 6.4 0.00 0.00 0.00 72 1009.9
20260904080833 11 360 1.6 6.4 0.00 0.00 0.00 72 1009.8
20260904080330 11 360 1.6 4.8 0.00 0.00 0.00 71 1009.8
20260904075843 11 360 1.6 4.8 0.00 0.00 0.00 70 1009.7
20260904075341 11 360 1.6 4.8 0.00 0.00 0.00 70 1009.7
20260904074859 11 47 1.6 4.8 0.00 0.00 0.00 69 1009.8
20260904074331 11 51 0.0 4.8 0.00 0.00 0.00 68 1009.8
20260904073848 11 51 1.6 4.8 0.00 0.00 0.00 68 1009.8
20260904073341 12 51 1.6 3.2 0.00 0.00 0.00 67 1009.6
20260904072833 12 51 0.0 3.2 0.00 0.00 0.00 67 1009.7
20260904072335 12 51 0.0 3.2 0.00 0.00 0.00 68 1009.7
20260904071830 12 51 0.0 3.2 0.00 0.00 0.00 66 1009.6
20260904071345 12 70 0.0 4.8 0.00 0.00 0.00 65 1009.5
20260904070842 12 70 1.6 4.8 0.00 0.00 0.00 65 1009.5
20260904070341 12 74 1.6 4.8 0.00 0.00 0.00 65 1009.4
20260904065826 12 78 1.6 3.2 0.00 0.00 0.00 64 1009.5
20260904065344 12 83 1.6 4.8 0.00 0.00 0.00 64 1009.5
20260904064839 12 83 1.6 4.8 0.00 0.00 0.00 64 1009.4
20260904064333 13 85 0.0 4.8 0.00 0.00 0.00 63 1009.4
20260904063826 12 85 3.2 6.4 0.00 0.00 0.00 63 1009.5
20260904063339 12 360 3.2 6.4 0.00 0.00 0.00 64 1009.6
20260904062832 12 360 3.2 4.8 0.00 0.00 0.00 65 1009.6
20260904062326 13 360 1.6 4.8 0.00 0.00 0.00 65 1009.6
20260904061843 13 360 1.6 4.8 0.00 0.00 0.00 64 1009.6
20260904061339 13 360 3.2 4.8 0.00 0.00 0.00 63 1009.5
20260904060904 13 360 0.0 6.4 0.00 0.00 0.00 63 1009.6
20260904060400 13 360 3.2 6.4 0.00 0.00 0.00 63 1009.5
20260904055842 13 360 1.6 3.2 0.00 0.03 0.00 64 1009.6
20260904055340 13 360 0.0 3.2 0.00 0.03 0.00 64 1009.6
20260904054835 13 360 1.6 4.8 0.00 0.03 0.00 64 1009.6
20260904054331 13 360 1.6 4.8 0.00 0.03 0.00 64 1009.7
20260904053856 13 360 1.6 4.8 0.00 0.03 0.00 64 1009.7
20260904053401 13 360 1.6 4.8 0.00 0.03 0.00 64 1009.8
20260904052833 13 360 1.6 4.8 0.00 0.03 0.00 64 1009.8
20260904052329 13 43 1.6 8.0 0.00 0.03 0.00 63 1009.8
20260904051827 13 30 3.2 8.0 0.00 0.03 0.00 63 1009.8
20260904051344 13 17 4.8 8.0 0.00 0.03 0.00 63 1009.9
20260904050836 13 360 3.2 8.0 0.00 0.03 0.00 63 1009.9
20260904050334 13 360 4.8 8.0 0.00 0.03 0.00 62 1010.0
20260904045831 13 360 3.2 8.0 0.00 0.03 0.00 62 1010.0
20260904045327 13 29 1.6 12.9 0.00 0.03 0.00 62 1009.9
20260904044841 13 29 3.2 16.1 0.00 0.03 0.00 62 1010.0
20260904044338 13 24 8.0 16.1 0.00 0.03 0.00 62 1009.9
20260904043831 13 17 3.2 8.0 0.00 0.03 0.00 62 1010.0
20260904043347 13 26 3.2 8.0 0.00 0.03 0.00 62 1009.9
20260904042841 13 43 3.2 12.9 0.00 0.03 0.00 62 1009.9
20260904042338 13 47 8.0 12.9 0.00 0.03 0.00 62 1009.9
20260904041832 13 360 3.2 6.4 0.00 0.03 0.00 62 1009.9
20260904041327 13 360 1.6 4.8 0.00 0.03 0.00 62 1009.8
20260904040843 13 360 1.6 4.8 0.00 0.03 0.00 61 1009.8
20260904040343 13 360 1.6 6.4 0.00 0.03 0.00 62 1009.7
20260904035906 13 360 1.6 6.4 0.00 0.03 0.00 62 1009.7
20260904035342 13 360 1.6 8.0 0.00 0.03 0.00 62 1009.6
20260904034839 13 17 3.2 8.0 0.00 0.03 0.00 63 1009.4
20260904034334 14 360 3.2 8.0 0.00 0.03 0.00 62 1009.4
20260904033831 14 360 3.2 12.9 0.00 0.03 0.00 62 1009.4
20260904033329 14 360 3.2 16.1 0.00 0.03 0.00 62 1009.5
20260904032837 14 360 6.4 16.1 0.00 0.03 0.00 62 1009.4
20260904032331 14 360 4.8 9.7 0.00 0.03 0.00 61 1009.3
20260904031829 14 360 3.2 6.4 0.00 0.03 0.00 62 1009.1
20260904031347 14 360 3.2 6.4 0.00 0.03 0.00 61 1008.9
20260904030852 15 360 1.6 6.4 0.00 0.03 0.00 61 1008.9
20260904030359 15 360 1.6 6.4 0.00 0.03 0.00 60 1008.7
20260904025849 15 360 1.6 6.4 0.00 0.03 0.00 60 1008.7
20260904025409 15 360 0.0 9.7 0.00 0.03 0.00 59 1008.7
20260904024846 15 360 3.2 9.7 0.00 0.03 0.00 58 1008.6
20260904024345 15 360 1.6 12.9 0.00 0.03 0.00 57 1008.4
20260904023834 15 17 1.6 12.9 0.00 0.03 0.00 56 1008.3
20260904023406 15 360 0.0 3.2 0.00 0.03 0.00 56 1008.4
20260904022840 16 360 0.0 12.9 0.00 0.03 0.00 57 1008.3
20260904022336 16 360 0.0 12.9 0.00 0.03 0.00 57 1008.3
20260904021833 16 360 3.2 9.7 0.00 0.03 0.00 56 1008.3
20260904021349 16 360 3.2 8.0 0.00 0.03 0.00 56 1008.2
20260904020845 16 360 3.2 12.9 0.00 0.03 0.00 55 1008.0
20260904020338 16 360 1.6 12.9 0.00 0.03 0.00 54 1008.1
20260904015842 16 360 1.6 6.4 0.00 0.03 0.00 54 1008.2
20260904015355 17 360 3.2 12.9 0.00 0.03 0.00 53 1008.1
20260904014843 17 26 6.4 12.9 0.00 0.03 0.00 53 1008.0
20260904014329 17 114 3.2 9.7 0.00 0.03 0.00 52 1008.0
20260904013845 17 360 3.2 6.4 0.00 0.03 0.00 51 1008.0
20260904013352 17 115 1.6 6.4 0.00 0.03 0.00 51 1007.9
20260904012834 18 360 3.2 6.4 0.00 0.03 0.00 51 1007.9
20260904012344 18 360 3.2 12.9 0.00 0.03 0.00 50 1007.8
20260904011839 18 360 3.2 12.9 0.00 0.03 0.00 49 1007.9
20260904011335 19 360 1.6 4.8 0.00 0.03 0.00 47 1007.9
20260904010845 19 360 1.6 8.0 0.00 0.03 0.00 46 1007.9
20260904010434 20 360 1.6 8.0 0.00 0.03 0.00 46 1007.8
20260904005829 20 360 1.6 6.4 0.00 0.03 0.00 43 1007.9
20260904005336 20 164 3.2 8.0 0.00 0.03 0.00 39 1007.8
20260904004840 20 78 1.6 11.3 0.00 0.03 0.00 39 1007.8
20260904004338 21 163 4.8 11.3 0.00 0.03 0.00 39 1007.8
20260904003846 21 149 4.8 9.7 0.00 0.03 0.00 38 1007.7
20260904003349 21 155 1.6 9.7 0.00 0.03 0.00 38 1007.8
20260904002828 21 157 3.2 9.7 0.00 0.03 0.00 37 1007.8
20260904002342 21 202 4.8 11.3 0.00 0.03 0.00 36 1007.8
20260904001856 21 195 6.4 12.9 0.00 0.03 0.00 37 1007.8
20260904001340 21 198 3.2 12.9 0.00 0.03 0.00 37 1007.8
20260904000836 21 209 3.2 11.3 0.00 0.03 0.00 37 1007.8
20260904000348 21 152 6.4 11.3 0.00 0.03 0.00 37 1007.9
20260903235843 21 159 4.8 11.3 0.00 0.03 0.00 37 1007.9
20260903235339 21 188 4.8 14.5 0.00 0.03 0.00 36 1007.9
20260903234835 21 159 8.0 14.5 0.00 0.03 0.00 37 1008.0
20260903234331 21 195 8.0 14.5 0.00 0.03 0.00 36 1007.9
20260903233827 21 183 3.2 14.5 0.00 0.03 0.00 36 1007.9
20260903233344 20 222 6.4 16.1 0.00 0.03 0.00 37 1008.0
20260903232840 21 360 11.3 16.1 0.00 0.03 0.00 37 1008.1
20260903232336 21 147 8.0 16.1 0.00 0.03 0.00 38 1008.2
20260903231857 21 172 8.0 16.1 0.00 0.03 0.00 37 1008.1
20260903231332 20 194 8.0 16.1 0.00 0.03 0.00 38 1008.1
20260903230826 21 360 12.9 16.1 0.00 0.03 0.00 38 1008.2
20260903230342 21 140 11.3 17.7 0.00 0.03 0.00 39 1008.2
20260903225905 20 189 8.0 17.7 0.00 0.03 0.00 37 1008.2
20260903225338 20 178 9.7 16.1 0.00 0.03 0.00 38 1008.2
20260903224841 20 164 14.5 19.3 0.00 0.03 0.00 38 1008.2
20260903224405 20 178 9.7 19.3 0.00 0.03 0.00 40 1008.3
20260903223844 20 184 9.7 17.7 0.00 0.03 0.00 41 1008.3
20260903223341 20 142 11.3 17.7 0.00 0.03 0.00 40 1008.5
20260903222842 20 186 8.0 27.4 0.00 0.03 0.00 43 1008.5
20260903222340 19 152 14.5 27.4 0.00 0.03 0.00 40 1008.4
20260903221903 20 192 14.5 20.9 0.00 0.03 0.00 39 1008.6
20260903221336 20 157 14.5 20.9 0.00 0.03 0.00 39 1008.5
20260903220829 20 166 9.7 24.1 0.00 0.03 0.00 42 1008.6
20260903220346 20 157 11.3 24.1 0.00 0.03 0.00 40 1008.5
20260903215924 20 168 11.3 24.1 0.00 0.03 0.00 41 1008.6